Location: Boda
(47.1872°N, 9.5454°E)
Time: 08:14:20
(UTC+00:00)

Cosmos 1842 - Pass Details

Date: 14 May 2021
Orbit: 521 x 535 km, 82.5° (Epoch: 16 June)

Event Time Altitude Azimuth Distance (km) Brightness Sun altitude
Exits shadow 00:42:36 41° 282° (WNW) 771 3.9 -21.5°
Maximum altitude 00:42:39 41° 284° (WNW) 771 3.9 -21.5°
Drops below altitude 10° 00:46:21 10° 356° (N) 1,777 6.8 -21.2°
Sets 00:48:36 0° 4° (N) 2,673 8.1 -21.1°
